Greenhouse

Last reading 1m ago
Temperature
23.6°C
Air
Humidity
0.0%RH
Relative
Ambient Light
360lx
TEMT6000 · approx.
Soil Moisture
100%
Mid-depth

Trends

Last 50 readings

Recent Readings

50 entries
Time Temp °C RH % Light lx Moist % Raw DO
Sep 5 16:41:20 23.62 0.00 360 100 459 1
Sep 5 16:40:01 23.73 0.00 167 100 14 0
Jun 12 18:28:11 18.37 85.24 0 71 1710 1
Jun 12 18:06:19 19.44 81.33 10 81 1542 1
Jun 12 17:44:31 23.02 75.57 0 80 1543 1
Jun 12 17:34:41 27.80 70.40 0 82 1516 1
Jun 12 17:24:48 35.71 50.75 1 83 1493 1
Jun 12 17:14:51 35.13 49.68 0 85 1464 1
Jun 12 17:04:56 33.94 53.13 0 86 1438 1
Jun 12 16:54:56 38.51 44.56 3 88 1403 1
Jun 12 16:45:03 42.08 40.87 0 90 1378 0
Jun 12 16:35:06 39.66 41.93 3 91 1348 0
Jun 12 16:25:12 43.28 37.64 4 92 1328 0
Jun 12 16:15:16 42.98 35.99 0 93 1312 0
Jun 12 16:05:26 44.23 41.46 3 70 1732 1
Jun 12 14:40:16 40.06 42.22 2 74 1664 1
Jun 12 14:17:44 33.85 51.18 0 74 1658 1
Jun 12 13:53:27 30.34 64.93 0 93 1318 0
Jun 12 13:31:33 32.09 58.69 2 90 1374 0
Jun 12 13:21:34 31.44 63.71 1 91 1354 0
Jun 12 13:11:39 36.10 55.17 0 92 1334 0
Jun 12 13:01:54 44.80 43.64 1 88 1412 0
Jun 12 12:51:07 37.44 51.21 1 87 1431 1
Jun 12 12:41:06 30.77 60.72 1 87 1431 1
Jun 12 12:31:14 36.95 52.89 1 86 1437 1
Jun 12 12:21:18 31.19 60.43 1 86 1437 1
Jun 12 12:11:23 33.03 58.85 2 86 1447 1
Jun 12 12:01:21 25.61 71.99 2 85 1456 1
Jun 12 11:51:24 27.01 67.17 1 86 1450 1
Jun 12 11:41:29 25.17 72.16 4 86 1435 1
Jun 12 11:31:35 28.02 64.28 2 86 1439 1
Jun 12 11:21:34 26.16 69.10 3 86 1440 1
Jun 12 11:11:38 22.75 77.82 4 87 1429 1
Jun 12 11:01:43 24.22 72.95 2 88 1415 0
Jun 12 10:51:47 24.18 73.08 1 88 1401 0
Jun 12 10:41:52 24.15 73.58 0 90 1380 0
Jun 12 10:31:56 22.58 76.52 0 91 1347 0
Jun 12 10:22:03 21.29 81.36 2 89 1381 0
Jun 12 10:10:35 22.32 77.67 0 91 1352 0
Jun 12 10:00:40 24.84 71.63 10 93 1321 0
Jun 12 09:38:51 23.84 74.38 3 91 1345 0
Jun 12 09:17:31 23.93 76.35 6 87 1420 0
Jun 12 09:07:36 25.51 70.49 3 88 1404 0
Jun 12 08:57:41 26.77 66.54 2 89 1398 0
Jun 12 08:47:43 24.06 73.97 2 89 1385 0
Jun 12 08:37:47 22.16 78.23 3 91 1360 0
Jun 12 08:27:52 20.21 83.20 8 86 1444 1
Jun 12 08:16:40 18.91 85.69 8 87 1419 0
Jun 12 08:06:45 19.70 83.61 2 89 1388 0
Jun 12 07:56:50 22.01 80.07 6 91 1360 0